TimeCDT,TemperatureF,Dew PointF,Humidity,Sea Level PressureIn,VisibilityMPH,Wind Direction,Wind SpeedMPH,Gust SpeedMPH,PrecipitationIn,Events,Conditions,WindDirDegrees,DateUTC
12:53 AM,45.0,45.0,100,30.09,8.0,Calm,Calm,-,N/A,,Clear,0,2013-05-06 05:53:00
1:06 AM,44.6,44.6,100,30.10,1.8,Calm,Calm,-,N/A,,Scattered Clouds,0,2013-05-06 06:06:00
1:13 AM,44.6,44.6,100,30.10,2.0,Calm,Calm,-,N/A,,Mostly Cloudy,0,2013-05-06 06:13:00
1:21 AM,44.6,44.6,100,30.10,10.0,Calm,Calm,-,N/A,,Mostly Cloudy,0,2013-05-06 06:21:00
1:51 AM,44.6,44.6,100,30.09,10.0,Calm,Calm,-,N/A,,Scattered Clouds,0,2013-05-06 06:51:00
1:53 AM,45.0,45.0,100,30.08,10.0,Calm,Calm,-,N/A,,Partly Cloudy,0,2013-05-06 06:53:00
2:53 AM,46.0,46.0,100,30.07,10.0,Calm,Calm,-,N/A,,Clear,0,2013-05-06 07:53:00
3:53 AM,46.0,46.0,100,30.07,9.0,Calm,Calm,-,N/A,,Clear,0,2013-05-06 08:53:00
4:10 AM,46.4,46.4,100,30.08,7.0,Calm,Calm,-,N/A,,Mostly Cloudy,0,2013-05-06 09:10:00
4:53 AM,48.9,48.0,97,30.08,7.0,North,3.5,-,N/A,,Overcast,360,2013-05-06 09:53:00
5:53 AM,48.9,48.9,100,30.08,5.0,Calm,Calm,-,N/A,,Overcast,0,2013-05-06 10:53:00
6:48 AM,48.2,48.2,100,30.11,4.0,North,5.8,-,N/A,,Overcast,360,2013-05-06 11:48:00
6:53 AM,48.9,48.9,100,30.10,4.0,Calm,Calm,-,N/A,,Overcast,0,2013-05-06 11:53:00
7:53 AM,50.0,50.0,100,30.12,4.0,NNE,6.9,-,N/A,,Overcast,30,2013-05-06 12:53:00
8:53 AM,50.0,50.0,100,30.13,4.0,Variable,3.5,-,N/A,,Overcast,0,2013-05-06 13:53:00
9:53 AM,51.1,50.0,96,30.14,8.0,Calm,Calm,-,N/A,,Overcast,0,2013-05-06 14:53:00
10:41 AM,51.8,50.0,94,30.16,10.0,North,6.9,-,N/A,,Overcast,10,2013-05-06 15:41:00
10:53 AM,53.1,50.0,89,30.15,10.0,Calm,Calm,-,N/A,,Overcast,0,2013-05-06 15:53:00
11:53 AM,55.0,51.1,86,30.14,10.0,Variable,3.5,-,N/A,,Overcast,0,2013-05-06 16:53:00
12:53 PM,57.9,51.1,78,30.13,9.0,Variable,3.5,-,N/A,,Overcast,0,2013-05-06 17:53:00
1:11 PM,59.0,51.8,77,30.13,10.0,North,5.8,-,N/A,,Overcast,360,2013-05-06 18:11:00
1:53 PM,62.1,52.0,70,30.11,10.0,Calm,Calm,-,N/A,,Scattered Clouds,0,2013-05-06 18:53:00
2:00 PM,62.6,51.8,68,30.12,10.0,Variable,4.6,-,N/A,,Mostly Cloudy,0,2013-05-06 19:00:00
2:13 PM,62.6,51.8,68,30.12,10.0,Calm,Calm,-,N/A,,Scattered Clouds,0,2013-05-06 19:13:00
2:53 PM,64.9,52.0,63,30.08,10.0,Calm,Calm,-,N/A,,Clear,0,2013-05-06 19:53:00
3:53 PM,66.9,52.0,59,30.05,10.0,Calm,Calm,-,N/A,,Clear,0,2013-05-06 20:53:00
5:53 PM,71.1,50.0,47,30.02,10.0,Calm,Calm,-,N/A,,Clear,0,2013-05-06 22:53:00
6:53 PM,69.1,48.0,47,30.01,10.0,Calm,Calm,-,N/A,,Clear,0,2013-05-06 23:53:00
7:53 PM,62.1,52.0,70,30.03,10.0,Calm,Calm,-,N/A,,Clear,0,2013-05-07 00:53:00
8:53 PM,54.0,51.1,90,30.05,10.0,Calm,Calm,-,N/A,,Clear,0,2013-05-07 01:53:00
9:53 PM,51.1,48.9,92,30.07,10.0,Calm,Calm,-,N/A,,Clear,0,2013-05-07 02:53:00
10:53 PM,51.1,50.0,96,30.09,6.0,Calm,Calm,-,N/A,,Clear,0,2013-05-07 03:53:00
11:53 PM,48.0,48.0,100,30.08,7.0,Calm,Calm,-,N/A,,Clear,0,2013-05-07 04:53:00